Location: Fountain Hills
(33.6120°N, 111.7170°W)
Time: 13:41:04
(UTC-07:00)

Hamsat - Visible Passes

Search period start: 25 May 2018 00:00
Search period end: 04 June 2018 00:00
Orbit: 584 x 619 km, 97.7° (Epoch: 24 May)

Date Brightness Start Highest point End Pass type
(mag) Time Alt. Az. Time Alt. Az. Time Alt. Az.
25 May ? 04:26:13 10° N 04:30:17 52° WNW 04:34:22 10° SSW visible
26 May ? 03:03:46 10° ENE 03:05:53 14° E 03:07:59 10° SE visible
26 May ? 04:37:51 10° N 04:41:43 37° WNW 04:45:36 10° SW visible
27 May ? 03:14:27 10° NE 03:17:25 19° E 03:20:24 10° SE visible
27 May ? 04:49:34 10° NNW 04:53:08 27° WNW 04:56:41 10° SW visible
28 May ? 03:25:26 10° NE 03:28:57 26° E 03:32:28 10° SSE visible
29 May ? 03:36:36 10° NNE 03:40:28 35° E 03:44:21 10° SSE visible
30 May ? 03:47:53 10° NNE 03:51:58 49° E 03:56:04 10° S visible
31 May ? 03:59:15 10° NNE 04:03:27 71° ESE 04:07:40 10° S visible
01 Jun ? 04:10:42 10° N 04:14:55 83° W 04:19:09 10° SSW visible
02 Jun ? 04:22:12 10° N 04:26:21 59° WNW 04:30:32 10° SSW visible
03 Jun ? 03:00:06 10° ENE 03:01:55 12° E 03:03:43 10° ESE visible
03 Jun ? 04:33:48 10° N 04:37:47 42° WNW 04:41:48 10° SW visible
